| time (UTC) | temp C | wind direction | speed KPH | gust KPH | rain 1hr cm | rain 24hr cm | rain mn cm | humidity % | barometer mb |
| 20260503212106 | 12 | 0.0 | 0.0 | 0.00 | 0.00 | 0.00 | 10 | 1019.8 | |
| 20260503211101 | 12 | 0.0 | 0.0 | 0.00 | 0.00 | 0.00 | 10 | 1019.8 | |
| 20260503210057 | 12 | 0.0 | 0.0 | 0.00 | 0.00 | 0.00 | 10 | 1019.9 | |
| 20260503205053 | 13 | 0.0 | 0.0 | 0.00 | 0.00 | 0.00 | 10 | 1020.0 | |
| 20260503204049 | 13 | 0.0 | 0.0 | 0.00 | 0.00 | 0.00 | 10 | 1020.0 | |
| 20260503203044 | 13 | 0.0 | 0.0 | 0.00 | 0.00 | 0.00 | 10 | 1019.8 | |
| 20260503202040 | 13 | 0.0 | 0.0 | 0.00 | 0.00 | 0.00 | 10 | 1019.9 | |
| 20260503201035 | 13 | 0.0 | 0.0 | 0.00 | 0.00 | 0.00 | 10 | 1019.9 | |
| 20260503200031 | 13 | 0.0 | 0.0 | 0.00 | 0.00 | 0.00 | 10 | 1019.9 | |
| 20260503195026 | 14 | 0.0 | 0.0 | 0.00 | 0.00 | 0.00 | 10 | 1019.7 | |
| 20260503194022 | 13 | 0.0 | 0.0 | 0.00 | 0.00 | 0.00 | 10 | 1019.7 | |
| 20260503193017 | 13 | 0.0 | 0.0 | 0.00 | 0.00 | 0.00 | 10 | 1019.6 | |
| 20260503192013 | 13 | 0.0 | 0.0 | 0.00 | 0.00 | 0.00 | 10 | 1019.5 | |
| 20260503191008 | 13 | 0.0 | 0.0 | 0.00 | 0.00 | 0.00 | 10 | 1019.4 | |
| 20260503190004 | 14 | 0.0 | 0.0 | 0.00 | 0.00 | 0.00 | 10 | 1019.1 | |
| 20260503184959 | 14 | 0.0 | 0.0 | 0.00 | 0.00 | 0.00 | 10 | 1019.1 | |
| 20260503183954 | 14 | 0.0 | 0.0 | 0.00 | 0.00 | 0.00 | 96 | 1019.0 | |
| 20260503182950 | 15 | 0.0 | 0.0 | 0.00 | 0.00 | 0.00 | 93 | 1019.0 | |
| 20260503181945 | 15 | 0.0 | 0.0 | 0.00 | 0.00 | 0.00 | 91 | 1019.1 | |
| 20260503180940 | 15 | 0.0 | 0.0 | 0.00 | 0.00 | 0.00 | 88 | 1019.1 | |
| 20260503175935 | 15 | 0.0 | 0.0 | 0.00 | 0.00 | 0.00 | 85 | 1019.1 | |
| 20260503174931 | 16 | 0.0 | 0.0 | 0.00 | 0.00 | 0.00 | 83 | 1019.0 | |
| 20260503173926 | 16 | 0.0 | 0.0 | 0.00 | 0.00 | 0.00 | 81 | 1019.1 | |
| 20260503172922 | 16 | 0.0 | 0.0 | 0.00 | 0.00 | 0.00 | 77 | 1019.0 | |
| 20260503171918 | 16 | 0.0 | 0.0 | 0.00 | 0.00 | 0.00 | 77 | 1019.0 | |
| 20260503170913 | 17 | 0.0 | 0.0 | 0.00 | 0.00 | 0.00 | 72 | 1019.0 | |
| 20260503150818 | 22 | 0.0 | 0.0 | 0.00 | 0.00 | 0.00 | 49 | 1018.8 | |
| 20260503130723 | 29 | 0.0 | 0.0 | 0.00 | 0.00 | 0.00 | 37 | 1019.2 | |
| 20260503110620 | 27 | 0.0 | 0.0 | 0.00 | 0.00 | 0.00 | 42 | 1020.1 | |
| 20260503081456 | 18 | 0.0 | 0.0 | 0.00 | 0.00 | 0.00 | 89 | 1021.5 | |
| 20260503080451 | 18 | 0.0 | 0.0 | 0.00 | 0.00 | 0.00 | 89 | 1021.4 | |
| 20260503072433 | 17 | 0.0 | 0.0 | 0.00 | 0.00 | 0.00 | 80 | 1021.1 | |
| 20260503071428 | 17 | 0.0 | 0.0 | 0.00 | 0.00 | 0.00 | 85 | 1021.2 | |
| 20260503070424 | 16 | 0.0 | 0.0 | 0.00 | 0.00 | 0.00 | 93 | 1021.5 | |
| 20260503054811 | 13 | 0.0 | 0.0 | 0.00 | 0.00 | 0.00 | 10 | 1021.6 | |
| 20260503053806 | 13 | 0.0 | 0.0 | 0.00 | 0.00 | 0.00 | 97 | 10.2 | |
| 20260503052801 | 12 | 0.0 | 0.0 | 0.00 | 0.00 | 0.00 | 88 | 1021.6 | |
| 20260503051757 | 12 | 0.0 | 0.0 | 0.00 | 0.00 | 0.00 | 82 | 1021.6 | |
| 20260503050753 | 12 | 0.0 | 0.0 | 0.00 | 0.00 | 0.00 | 81 | 1021.6 | |
| 20260503045748 | 11 | 0.0 | 0.0 | 0.00 | 0.00 | 0.00 | 10 | 1021.6 | |
| 20260503044744 | 11 | 0.0 | 0.0 | 0.00 | 0.00 | 0.00 | 10 | 1021.7 | |
| 20260503043739 | 10 | 0.0 | 0.0 | 0.00 | 0.00 | 0.00 | 10 | 1021.8 | |
| 20260503042734 | 10 | 0.0 | 0.0 | 0.00 | 0.00 | 0.00 | 10 | 1021.8 | |
| 20260503041730 | 10 | 0.0 | 0.0 | 0.00 | 0.00 | 0.00 | 98 | 1021.7 | |
| 20260503040725 | 10 | 0.0 | 0.0 | 0.00 | 0.00 | 0.00 | 95 | 1021.8 | |
| 20260503035720 | 10 | 0.0 | 0.0 | 0.00 | 0.00 | 0.00 | 92 | 1021.8 | |
| 20260503034714 | 10 | 0.0 | 0.0 | 0.00 | 0.00 | 0.00 | 89 | 1021.8 | |
| 20260503033709 | 9 | 0.0 | 0.0 | 0.00 | 0.00 | 0.00 | 88 | 1021.9 | |
| 20260503032705 | 10 | 0.0 | 0.0 | 0.00 | 0.00 | 0.00 | 85 | 1021.8 | |
| 20260503031700 | 10 | 0.0 | 0.0 | 0.00 | 0.00 | 0.00 | 82 | 1021.9 | |
| 20260503030656 | 10 | 0.0 | 0.0 | 0.00 | 0.00 | 0.00 | 79 | 1021.8 | |
| 20260503025651 | 10 | 0.0 | 0.0 | 0.00 | 0.00 | 0.00 | 74 | 1021.9 | |
| 20260503024646 | 10 | 0.0 | 0.0 | 0.00 | 0.00 | 0.00 | 70 | 1021.9 | |
| 20260503023640 | 10 | 0.0 | 0.0 | 0.00 | 0.00 | 0.00 | 66 | 1021.9 | |
| 20260503022636 | 10 | 0.0 | 0.0 | 0.00 | 0.00 | 0.00 | 67 | 1022.0 | |
| 20260503021631 | 10 | 0.0 | 0.0 | 0.00 | 0.00 | 0.00 | 61 | 1022.1 | |
| 20260503020627 | 10 | 0.0 | 0.0 | 0.00 | 0.00 | 0.00 | 59 | 1022.0 | |
| 20260503015622 | 10 | 0.0 | 0.0 | 0.00 | 0.00 | 0.00 | 59 | 1021.9 | |
| 20260503014617 | 11 | 0.0 | 0.0 | 0.00 | 0.00 | 0.00 | 53 | 1022.0 | |
| 20260503013613 | 11 | 0.0 | 0.0 | 0.00 | 0.00 | 0.00 | 51 | 1021.9 | |
| 20260503012608 | 12 | 0.0 | 0.0 | 0.00 | 0.00 | 0.00 | 46 | 1021.8 | |
| 20260503011603 | 13 | 0.0 | 0.0 | 0.00 | 0.00 | 0.00 | 45 | 1021.8 | |
| 20260503010559 | 11 | 0.0 | 0.0 | 0.00 | 0.00 | 0.00 | 49 | 1022.0 | |
| 20260503005553 | 12 | 0.0 | 0.0 | 0.00 | 0.00 | 0.00 | 47 | 1021.9 | |
| 20260503004548 | 11 | 0.0 | 0.0 | 0.00 | 0.00 | 0.00 | 51 | 1022.1 | |
| 20260503003543 | 12 | 0.0 | 0.0 | 0.00 | 0.00 | 0.00 | 50 | 1022.1 | |
| 20260503002538 | 12 | 0.0 | 0.0 | 0.00 | 0.00 | 0.00 | 47 | 1022.2 | |
| 20260503001534 | 13 | 0.0 | 0.0 | 0.00 | 0.00 | 0.00 | 46 | 1022.2 | |
| 20260503000529 | 12 | 0.0 | 0.0 | 0.00 | 0.00 | 0.00 | 50 | 1022.4 | |
| 20260502235525 | 12 | 0.0 | 0.0 | 0.00 | 0.00 | 0.00 | 51 | 1022.4 | |
| 20260502234520 | 12 | 0.0 | 0.0 | 0.00 | 0.00 | 0.00 | 50 | 1022.4 | |
| 20260502233516 | 12 | 0.0 | 0.0 | 0.00 | 0.00 | 0.00 | 49 | 1022.5 | |
| 20260502232511 | 12 | 0.0 | 0.0 | 0.00 | 0.00 | 0.00 | 50 | 1022.5 | |
| 20260502231506 | 12 | 0.0 | 0.0 | 0.00 | 0.00 | 0.00 | 54 | 1022.7 | |
| 20260502230502 | 12 | 0.0 | 0.0 | 0.00 | 0.00 | 0.00 | 51 | 1022.7 | |
| 20260502225457 | 13 | 0.0 | 0.0 | 0.00 | 0.00 | 0.00 | 48 | 1022.7 | |
| 20260502224453 | 13 | 0.0 | 0.0 | 0.00 | 0.00 | 0.00 | 45 | 1022.7 | |
| 20260502223448 | 13 | 0.0 | 0.0 | 0.00 | 0.00 | 0.00 | 44 | 1022.7 | |
| 20260502222436 | 13 | 0.0 | 0.0 | 0.00 | 0.00 | 0.00 | 43 | 1022.7 | |
| 20260502221432 | 13 | 0.0 | 0.0 | 0.00 | 0.00 | 0.00 | 44 | 1022.7 | |
| 20260502220427 | 13 | 0.0 | 0.0 | 0.00 | 0.00 | 0.00 | 44 | 1022.8 | |
| 20260502215422 | 13 | 0.0 | 0.0 | 0.00 | 0.00 | 0.00 | 45 | 1022.8 | |
| 20260502214417 | 13 | 0.0 | 0.0 | 0.00 | 0.00 | 0.00 | 44 | 1022.8 | |
| 20260502213413 | 13 | 0.0 | 0.0 | 0.00 | 0.00 | 0.00 | 45 | 1022.9 |